1489658401.09,35356,9.75,73158.0,-6.23,-8.03,-8.11,0,*52
1489658402.37,35357,9.75,73172.3,-6.23,-7.61,-7.57,0,*55
1489658403.65,35358,9.75,73180.8,-6.23,-7.43,-7.43,0,*5F
1489658404.88,35359,9.75,73180.8,-6.21,-7.19,-7.31,0,*56
1489658406.11,35360,9.75,73208.3,-6.23,-7.11,-7.11,0,*54
1489658407.36,35361,9.75,73206.8,-6.17,-7.01,-7.01,0,*52
1489658408.63,35362,9.75,73212.3,-6.19,-7.31,-7.31,0,*5F
1489658409.91,35363,9.75,73214.0,-6.19,-7.01,-7.05,0,*5A
1489658411.15,35364,9.75,73214.3,-6.17,-7.01,-7.01,0,*57
1489658412.35,35365,9.75,73210.0,-6.17,-6.85,-6.85,0,*56
1489658413.55,35366,9.75,73214.3,-6.13,-6.89,-6.89,0,*51
1489658414.75,35367,9.75,73226.0,-6.13,-6.89,-6.89,0,*50
1489658415.99,35368,9.75,73220.5,-6.13,-6.63,-6.63,0,*5F
1489658417.2,35369,9.75,73218.5,-6.13,-6.51,-6.51,0,*5E
1489658418.43,35370,9.75,73214.0,-6.11,-6.51,-6.43,0,*57
1489658419.71,35371,9.75,73214.0,-6.11,-6.97,-6.97,0,*55
1489658420.94,35372,9.75,73214.3,-6.07,-7.15,-7.19,0,*5D
1489658422.21,35373,9.75,73212.8,-6.07,-6.93,-6.93,0,*50
1489658423.41,35374,9.75,73214.0,-6.05,-6.81,-6.85,0,*51
1489658424.63,35375,9.75,73216.8,-6.05,-6.89,-6.97,0,*5B
1489658425.87,35376,9.75,73216.5,-6.05,-7.39,-7.39,0,*57
1489658427.1,35377,9.75,73208.8,-6.05,-7.53,-7.61,0,*57
1489658428.35,35378,9.75,73202.5,-6.05,-7.73,-7.77,0,*5D
1489658429.6,35379,9.75,73200.3,-6.05,-7.61,-7.65,0,*5C
1489658430.81,35380,9.75,73202.0,-6.05,-6.81,-6.89,0,*56
1489658432.0,35381,9.75,73200.5,-6.05,-6.69,-6.55,0,*50
1489658433.24,35382,9.75,73198.5,-5.99,-7.11,-7.05,0,*5F
1489658434.51,35383,9.75,73188.8,-5.99,-6.93,-6.97,0,*5F
1489658435.73,35384,9.75,73188.0,-5.99,-7.23,-7.23,0,*5C
1489658437.0,35385,9.75,73184.3,-5.99,-6.97,-6.97,0,*5D
1489658438.22,35386,9.75,73188.8,-5.97,-7.27,-7.19,0,*5D
1489658439.42,35387,9.75,73184.5,-5.97,-6.81,-6.81,0,*51
1489658440.63,35388,9.75,73184.0,-5.95,-6.73,-6.77,0,*58
1489658441.88,35389,9.75,73180.8,-5.95,-6.93,-6.93,0,*5D
1489658443.12,35390,9.75,73164.0,-5.97,-7.65,-7.69,0,*5B
1489658444.37,35391,9.75,73160.8,-5.93,-7.19,-7.05,0,*5F
1489658445.64,35392,9.75,73168.0,-5.93,-7.05,-7.05,0,*51
1489658446.89,35393,9.75,73192.3,-5.95,-7.39,-7.39,0,*56
1489658448.14,35394,9.75,73176.8,-5.93,-7.05,-7.15,0,*56
1489658449.42,35395,9.75,73176.0,-5.93,-7.43,-7.43,0,*56
1489658450.69,35396,9.75,73182.0,-5.93,-7.39,-7.43,0,*58
1489658451.96,35397,9.75,73194.8,-5.93,-7.01,-7.05,0,*50
1489658453.19,35398,9.75,73200.3,-5.93,-6.89,-6.89,0,*5B
1489658454.47,35399,9.75,73198.5,-5.93,-7.31,-7.43,0,*5F
1489658455.67,35400,9.75,73206.0,-5.91,-7.11,-7.11,0,*5F
1489658456.92,35401,9.75,73198.3,-5.89,-7.87,-7.91,0,*50
1489658458.15,35402,9.75,73190.3,-5.93,-8.75,-8.93,0,*57
1489658459.37,35403,9.75,73184.3,-5.95,-7.87,-7.95,0,*5B
1489658460.6,35404,9.75,73182.8,-5.95,-7.57,-7.53,0,*5B
1489658461.85,35405,9.75,73176.8,-5.93,-7.43,-7.53,0,*59
1489658463.13,35406,9.75,73178.3,-5.93,-7.73,-7.99,0,*5F
1489658464.35,35407,9.75,73154.5,-5.93,-8.21,-8.33,0,*59
1489658465.57,35408,9.75,73174.0,-5.95,-7.43,-7.53,0,*52
1489658466.82,35409,9.75,73176.8,-5.95,-7.43,-7.65,0,*56
1489658468.06,35410,9.75,73196.0,-5.95,-7.19,-7.27,0,*57
1489658469.34,35411,9.75,73184.8,-5.93,-7.31,-7.43,0,*58
1489658470.58,35412,9.75,73188.3,-5.93,-7.43,-7.53,0,*5F
1489658471.84,35413,9.75,73208.5,-5.93,-7.69,-7.83,0,*5B
1489658473.09,35414,9.75,73218.0,-5.91,-7.57,-7.61,0,*5F
1489658474.37,35415,9.75,73224.8,-5.93,-7.65,-7.73,0,*5E
1489658475.65,35416,9.75,73212.5,-5.93,-7.57,-7.65,0,*5B
1489658476.91,35417,9.75,73206.8,-5.93,-7.19,-7.27,0,*56
1489658478.14,35418,9.75,73214.0,-5.91,-7.15,-7.35,0,*54
1489658479.39,35419,9.75,73220.3,-5.93,-7.05,-7.19,0,*58
1489658480.64,35420,9.75,73224.3,-5.93,-6.93,-7.19,0,*5C
1489658481.87,35421,9.75,73226.3,-5.91,-6.77,-6.97,0,*52
1489658483.12,35422,9.75,73228.0,-5.87,-7.05,-7.31,0,*5F
1489658484.37,35423,9.75,73234.5,-5.89,-7.05,-7.23,0,*53
1489658485.62,35424,9.75,73212.5,-5.89,-7.87,-8.11,0,*50
1489658486.87,35425,9.75,73218.3,-5.89,-7.43,-7.49,0,*5B
1489658488.12,35426,9.75,73210.8,-5.89,-6.97,-7.11,0,*5D
1489658489.35,35427,9.75,73208.3,-5.87,-6.81,-6.93,0,*5E
1489658490.55,35428,9.75,73210.5,-5.87,-6.73,-6.85,0,*5B
1489658491.76,35429,9.75,73202.0,-5.87,-6.63,-6.73,0,*52
1489658492.98,35430,9.75,73208.5,-5.85,-6.77,-6.89,0,*58
1489658494.2,35431,9.75,73204.5,-5.85,-6.69,-6.69,0,*58
1489658495.44,35432,9.75,73180.5,-5.83,-7.43,-7.57,0,*58
1489658496.67,35433,9.75,73194.5,-5.83,-7.61,-7.83,0,*50
1489658497.91,35434,9.75,73230.8,-5.83,-7.39,-7.57,0,*53
1489658499.11,35435,9.75,73228.3,-5.83,-8.21,-8.41,0,*5C
1489658500.32,35436,9.75,73230.0,-5.85,-8.41,-8.63,0,*5F
1489658501.54,35437,9.75,73212.3,-5.85,-7.83,-7.87,0,*5A
1489658502.81,35438,9.75,73226.3,-5.85,-7.39,-7.57,0,*59
1489658504.05,35439,9.75,73234.8,-5.85,-7.43,-7.53,0,*51
1489658505.27,35440,9.75,73224.8,-5.85,-8.21,-8.37,0,*59
1489658506.52,35441,9.75,73204.0,-5.85,-9.31,-9.61,0,*5A
1489658507.77,35442,9.75,73196.8,-5.87,-9.37,-9.53,0,*5C
1489658508.97,35443,9.75,73190.0,-5.91,-8.17,-8.29,0,*55
1489658510.22,35444,9.75,73212.0,-5.91,-7.65,-7.69,0,*53
1489658511.43,35445,9.75,73206.5,-5.91,-8.71,-8.85,0,*55
1489658512.63,35446,9.75,73218.3,-5.91,-8.71,-8.71,0,*5D
1489658513.91,35447,9.75,73244.3,-5.93,-7.95,-7.99,0,*52
1489658515.1,35448,9.75,73218.8,-5.91,-8.33,-8.45,0,*52
1489658516.32,35449,9.75,73192.3,-5.93,-8.21,-8.21,0,*50
1489658517.55,35450,9.75,73230.3,-5.91,-8.07,-8.17,0,*5B
1489658518.78,35451,9.75,73226.0,-5.93,-7.83,-7.87,0,*5D
1489658520.06,35452,9.75,73224.3,-5.93,-8.07,-8.11,0,*5D
1489658521.34,35453,9.75,73186.3,-5.93,-8.07,-8.11,0,*5C
1489658522.59,35454,9.75,73202.3,-5.93,-8.11,-8.21,0,*5F
1489658523.82,35455,9.75,73218.5,-5.93,-7.83,-7.87,0,*59
1489658525.02,35456,9.75,73212.0,-5.95,-8.25,-8.33,0,*5F
1489658526.21,35457,9.75,73196.3,-5.97,-8.33,-8.37,0,*5F
1489658527.47,35458,9.75,73210.5,-5.95,-7.95,-8.07,0,*52
1489658528.69,35459,9.75,73188.8,-5.95,-9.57,-9.75,0,*57
1489658529.91,35460,9.75,73192.5,-5.97,-8.11,-8.21,0,*5C
1489658531.1,35461,9.75,73196.8,-5.97,-8.55,-8.75,0,*5C
1489658532.32,35462,9.75,73182.5,-5.97,-8.55,-8.81,0,*54
1489658533.58,35463,9.75,73190.5,-5.99,-7.99,-8.03,0,*5E
1489658534.84,35464,9.75,73186.0,-5.99,-7.91,-7.91,0,*55
1489658536.12,35465,9.75,73188.5,-5.99,-7.57,-7.61,0,*51
1489658537.39,35466,9.75,73196.0,-5.99,-7.31,-7.31,0,*57
1489658538.66,35467,9.75,73194.5,-5.99,-7.57,-7.61,0,*53
1489658539.88,35468,9.75,73188.3,-5.97,-7.43,-7.53,0,*56
1489658541.12,35469,9.75,73186.0,-5.97,-7.31,-7.39,0,*5E
1489658542.31,35470,9.75,73172.8,-5.97,-7.53,-7.53,0,*5E
1489658543.56,35471,9.75,73176.3,-5.97,-7.57,-7.65,0,*5E
1489658544.8,35472,9.75,73186.3,-5.97,-7.31,-7.31,0,*5C
1489658546.05,35473,9.75,73188.5,-5.97,-7.57,-7.57,0,*5D
1489658547.28,35474,9.75,73180.0,-5.95,-7.53,-7.65,0,*5D
1489658548.53,35475,9.75,73174.0,-5.95,-7.27,-7.31,0,*5E
1489658549.76,35476,9.75,73160.5,-5.93,-7.15,-7.19,0,*50
1489658551.03,35477,9.75,73166.3,-5.93,-7.39,-7.43,0,*50
1489658552.26,35478,9.75,73186.3,-5.93,-7.19,-7.19,0,*52
1489658553.46,35479,9.75,73184.8,-5.91,-6.85,-6.89,0,*5D
1489658554.67,35480,9.75,73178.5,-5.91,-7.15,-7.23,0,*52
1489658555.92,35481,9.75,73180.8,-5.91,-6.97,-7.01,0,*58
1489658557.17,35482,9.75,73178.8,-5.91,-7.65,-7.65,0,*55
1489658558.37,35483,9.75,73184.8,-5.91,-7.53,-7.49,0,*5F
1489658559.56,35484,9.75,73182.0,-5.91,-7.49,-7.53,0,*58
1489658560.78,35485,9.75,73196.8,-5.91,-7.39,-7.49,0,*55
1489658562.0,35486,9.75,73200.0,-5.89,-7.19,-7.19,0,*58
1489658563.28,35487,9.75,73206.0,-5.89,-7.31,-7.31,0,*59
1489658564.55,35488,9.75,73194.3,-5.89,-7.35,-7.31,0,*52
1489658565.78,35489,9.75,73192.8,-5.89,-7.19,-7.19,0,*57
1489658567.03,35490,9.75,73190.5,-5.87,-7.43,-7.43,0,*51
1489658568.29,35491,9.75,73186.8,-5.87,-7.43,-7.43,0,*50
1489658569.53,35492,9.75,73180.8,-5.89,-7.49,-7.61,0,*57
1489658570.81,35493,9.75,73162.8,-5.89,-7.57,-7.57,0,*5C
1489658572.05,35494,9.75,73168.0,-5.87,-8.03,-8.03,0,*55
1489658573.25,35495,9.75,73180.5,-5.87,-8.17,-8.25,0,*55
1489658574.47,35496,9.75,73182.5,-5.89,-8.37,-8.41,0,*58
1489658575.69,35497,9.75,73204.0,-5.89,-8.41,-8.41,0,*58
1489658576.96,35498,9.75,73214.3,-5.89,-7.91,-7.91,0,*57
1489658578.16,35499,9.75,73194.5,-5.91,-7.53,-7.53,0,*5F
1489658579.36,35500,9.75,73178.3,-5.91,-8.63,-8.71,0,*5D
1489658580.61,35501,9.75,73184.3,-5.91,-7.77,-7.77,0,*5F
1489658581.81,35502,9.75,73182.0,-5.91,-7.83,-7.83,0,*5C
1489658583.06,35503,9.75,73182.8,-5.93,-8.11,-8.21,0,*5C
1489658584.34,35504,9.75,73180.3,-5.93,-8.07,-8.11,0,*5F
1489658585.59,35505,9.75,73188.5,-5.91,-7.61,-7.65,0,*5F
1489658586.82,35506,9.75,73190.5,-5.91,-7.53,-7.65,0,*5D
1489658588.09,35507,9.75,73174.3,-5.93,-7.69,-7.73,0,*50
1489658589.35,35508,9.75,73182.5,-5.93,-7.65,-7.83,0,*5C
1489658590.54,35509,9.75,73190.3,-5.91,-7.53,-7.53,0,*57
1489658591.77,35510,9.75,73196.8,-5.91,-7.53,-7.61,0,*5E
1489658593.02,35511,9.75,73210.5,-5.91,-7.35,-7.31,0,*5A
1489658594.27,35512,9.75,73202.3,-5.91,-7.91,-7.91,0,*5D
1489658595.51,35513,9.75,73206.5,-5.91,-7.69,-7.69,0,*5C
1489658596.71,35514,9.75,73222.5,-5.91,-7.23,-7.15,0,*5E
1489658597.94,35515,9.75,73228.3,-5.91,-7.35,-7.49,0,*51
1489658599.13,35516,9.75,73222.0,-5.91,-8.29,-8.29,0,*59
1489658600.36,35517,9.75,73198.5,-5.87,-7.43,-7.49,0,*55
1489658601.6,35518,9.75,73210.8,-5.89,-7.49,-7.57,0,*51
1489658602.88,35519,9.75,73210.0,-5.89,-7.73,-7.91,0,*53
1489658604.15,35520,9.75,73180.5,-5.89,-7.91,-7.99,0,*5D
1489658605.42,35521,9.75,73156.3,-5.89,-7.99,-8.03,0,*58
1489658606.63,35522,9.75,73208.0,-5.89,-8.41,-8.67,0,*53
1489658607.85,35523,9.75,73166.0,-5.89,-8.29,-8.41,0,*58
1489658609.09,35524,9.75,73184.5,-5.93,-8.67,-8.81,0,*52
1489658610.29,35525,9.75,73210.5,-5.91,-8.21,-8.45,0,*5B
1489658611.54,35526,9.75,73218.8,-5.93,-8.11,-8.25,0,*5F
1489658612.77,35527,9.75,73212.8,-5.93,-8.25,-8.37,0,*5A
1489658614.02,35528,9.75,73214.8,-5.93,-7.83,-7.99,0,*5D
1489658615.27,35529,9.75,73216.5,-5.93,-7.87,-8.11,0,*57
1489658616.55,35530,9.75,73212.8,-5.93,-7.73,-7.95,0,*57
1489658617.8,35531,9.75,73194.8,-5.93,-7.83,-7.95,0,*59
1489658619.07,35532,9.75,73196.8,-5.93,-7.65,-7.69,0,*51
1489658620.35,35533,9.75,73192.5,-5.93,-8.07,-8.11,0,*5B
1489658621.58,35534,9.75,73188.0,-5.95,-8.37,-8.51,0,*5D
1489658622.81,35535,9.75,73202.5,-5.95,-8.81,-9.01,0,*55
1489658624.0,35536,9.75,73202.0,-5.97,-8.67,-8.75,0,*5E
1489658625.19,35537,9.75,73202.5,-5.97,-8.37,-8.55,0,*58
1489658626.41,35538,9.75,73222.5,-5.97,-9.01,-9.15,0,*56
1489658627.65,35539,9.75,73216.3,-5.99,-8.59,-8.81,0,*59
1489658628.9,35540,9.75,73192.3,-5.99,-9.05,-9.11,0,*57
1489658630.09,35541,9.75,73170.0,-6.01,-8.41,-8.41,0,*51
1489658631.33,35542,9.75,73172.3,-6.01,-7.91,-8.03,0,*56
1489658632.59,35543,9.75,73192.5,-5.99,-7.91,-8.11,0,*56
1489658633.85,35544,9.75,73184.5,-5.99,-8.03,-8.03,0,*56
1489658635.13,35545,9.75,73166.5,-5.99,-7.73,-7.77,0,*53
1489658636.4,35546,9.75,73178.8,-5.99,-7.61,-7.61,0,*54
1489658637.67,35547,9.75,73192.0,-5.99,-7.61,-7.73,0,*56
1489658638.91,35548,9.75,73178.0,-5.99,-8.51,-8.71,0,*58
1489658640.14,35549,9.75,73174.3,-6.01,-9.31,-9.37,0,*5F
1489658641.35,35550,9.75,73168.0,-5.99,-8.17,-8.41,0,*50
1489658642.58,35551,9.75,73170.3,-6.01,-9.05,-9.11,0,*55
1489658643.77,35552,9.75,73168.8,-6.05,-8.29,-8.45,0,*5D
1489658644.97,35553,9.75,73166.8,-6.05,-8.55,-8.71,0,*50
1489658646.2,35554,9.75,73164.3,-6.05,-9.23,-9.37,0,*54
1489658647.44,35555,9.75,73160.0,-6.07,-10.15,-10.27,0,*53
1489658648.66,35556,9.75,73164.3,-6.07,-9.89,-10.09,0,*61
1489658649.91,35557,9.75,73170.8,-6.11,-9.61,-9.75,0,*52
1489658651.16,35558,9.75,73178.0,-6.11,-8.81,-8.85,0,*5C
1489658652.41,35559,9.75,73176.3,-6.11,-9.19,-9.37,0,*55
1489658653.62,35560,9.75,73172.0,-6.13,-9.93,-10.27,0,*66
1489658654.82,35561,9.75,73180.0,-6.13,-9.19,-9.31,0,*5A
1489658656.02,35562,9.75,73180.3,-6.13,-8.71,-8.97,0,*5B
1489658657.29,35563,9.75,73170.8,-6.19,-11.07,-11.41,0,*5A
1489658658.52,35564,9.75,73166.3,-6.21,-11.19,-11.51,0,*58
1489658659.76,35565,9.75,73158.0,-6.25,-11.23,-11.55,0,*50
1489658661.01,35566,9.75,73150.8,-6.29,-10.45,-10.63,0,*5A
1489658662.22,35567,9.75,73138.0,-6.31,-10.45,-10.89,0,*56
1489658663.46,35568,9.75,73132.3,-6.33,-9.53,-9.67,0,*5C
1489658664.71,35569,9.75,73138.0,-6.33,-9.27,-9.45,0,*5E
1489658665.96,35570,9.75,73146.3,-6.33,-9.19,-9.41,0,*5F
1489658667.19,35571,9.75,73154.5,-6.35,-9.01,-9.15,0,*50
1489658668.39,35572,9.75,73142.0,-6.35,-8.85,-8.85,0,*56
1489658669.6,35573,9.75,73158.3,-6.35,-8.93,-9.05,0,*59
1489658670.82,35574,9.75,73172.0,-6.37,-9.05,-9.19,0,*5F
1489658672.06,35575,9.75,73216.0,-6.37,-8.07,-8.17,0,*52
1489658673.25,35576,9.75,73206.8,-6.35,-8.21,-8.33,0,*51
1489658674.45,35577,9.75,73194.3,-6.35,-8.37,-8.45,0,*56
1489658675.65,35578,9.75,73198.8,-6.35,-8.25,-8.45,0,*5A
1489658676.84,35579,9.75,73182.0,-6.35,-9.67,-9.97,0,*52
1489658678.07,35580,9.75,73180.5,-6.37,-10.85,-11.11,0,*55
1489658679.33,35581,9.75,73156.0,-6.37,-10.57,-10.75,0,*58
1489658680.56,35582,9.75,73146.8,-6.39,-11.15,-11.33,0,*51
1489658681.82,35583,9.75,73154.5,-6.41,-10.71,-10.89,0,*5C
1489658683.07,35584,9.75,73154.0,-6.45,-10.79,-11.11,0,*57
1489658684.3,35585,9.75,73152.0,-6.47,-11.19,-11.33,0,*53
1489658685.53,35586,9.75,73128.0,-6.51,-11.97,-12.39,0,*58
1489658686.76,35587,9.75,73112.0,-6.55,-12.39,-12.65,0,*53
1489658688.0,35588,9.75,73116.0,-6.59,-10.79,-10.89,0,*56
1489658689.21,35589,9.75,73142.8,-6.61,-10.31,-10.45,0,*50
1489658690.44,35590,9.75,73150.5,-6.61,-10.57,-10.79,0,*57
1489658691.68,35591,9.75,73168.5,-6.63,-10.45,-10.57,0,*5B
1489658692.92,35592,9.75,73162.0,-6.63,-9.61,-9.75,0,*5E
1489658694.13,35593,9.75,73150.0,-6.65,-10.31,-10.49,0,*53
1489658695.43,35594,9.75,73148.5,-6.67,-10.63,-10.75,0,*5E
1489658696.65,35595,9.75,73164.8,-6.67,-9.75,-9.79,0,*54
1489658697.89,35596,9.75,73160.8,-6.67,-9.93,-10.19,0,*61
1489658699.15,35597,9.75,73150.8,-6.67,-10.49,-10.63,0,*52
1489658700.42,35598,9.75,73140.0,-6.73,-10.41,-10.75,0,*57
1489658701.69,35599,9.75,73138.5,-6.73,-10.63,-10.75,0,*56
1489658702.93,35600,9.75,73142.3,-6.75,-10.09,-10.15,0,*59
1489658704.17,35601,9.75,73138.3,-6.75,-9.57,-9.71,0,*51
1489658705.45,35602,9.75,73142.0,-6.75,-9.45,-9.37,0,*53
1489658706.66,35603,9.75,73150.8,-6.77,-9.05,-9.27,0,*55
1489658707.86,35604,9.75,73156.3,-6.77,-9.97,-10.09,0,*6D
1489658709.1,35605,9.75,73114.0,-6.77,-9.45,-9.57,0,*50
1489658710.31,35606,9.75,73138.0,-6.77,-9.05,-9.19,0,*5D
1489658711.51,35607,9.75,73150.3,-6.77,-8.93,-9.05,0,*5F
1489658712.71,35608,9.75,73150.0,-6.77,-8.63,-8.63,0,*5E
1489658713.9,35609,9.75,73116.0,-6.77,-8.55,-8.67,0,*5E
1489658715.12,35610,9.75,73134.3,-6.77,-8.63,-8.81,0,*5B
1489658716.37,35611,9.75,73158.8,-6.75,-8.81,-9.01,0,*5D
1489658717.58,35612,9.75,73162.0,-6.77,-8.93,-9.05,0,*5B
1489658718.81,35613,9.75,73178.3,-6.75,-8.93,-9.05,0,*58
1489658720.05,35614,9.75,73156.0,-6.75,-10.01,-10.31,0,*52
1489658721.29,35615,9.75,73166.5,-6.75,-8.89,-9.05,0,*55
1489658722.51,35616,9.75,73162.3,-6.77,-8.93,-9.15,0,*5E
1489658723.74,35617,9.75,73156.5,-6.77,-8.81,-8.89,0,*58
1489658724.96,35618,9.75,73144.3,-6.77,-8.67,-8.81,0,*57
1489658726.16,35619,9.75,73142.3,-6.77,-8.21,-8.37,0,*59
1489658727.38,35620,9.75,73150.0,-6.77,-8.51,-8.75,0,*52
1489658728.61,35621,9.75,73182.3,-6.77,-8.37,-8.51,0,*55
1489658729.84,35622,9.75,73176.3,-6.75,-8.25,-8.37,0,*57
1489658731.08,35623,9.75,73192.5,-6.73,-8.03,-8.03,0,*53
1489658732.3,35624,9.75,73190.5,-6.69,-8.33,-8.51,0,*5B
1489658733.51,35625,9.75,73182.8,-6.73,-8.89,-9.01,0,*54
1489658734.71,35626,9.75,73186.3,-6.73,-8.63,-8.75,0,*51
1489658735.91,35627,9.75,73180.3,-6.73,-8.75,-8.97,0,*5B
1489658737.12,35628,9.75,73192.3,-6.73,-8.17,-8.29,0,*55
1489658738.36,35629,9.75,73196.0,-6.69,-7.77,-7.91,0,*5A
1489658739.61,35630,9.75,73192.8,-6.67,-8.03,-8.25,0,*50
1489658740.88,35631,9.75,73184.3,-6.67,-7.99,-8.03,0,*59
1489658742.11,35632,9.75,73184.3,-6.65,-7.77,-7.87,0,*5B
1489658743.36,35633,9.75,73180.0,-6.65,-7.73,-7.99,0,*51
1489658744.61,35634,9.75,73194.5,-6.63,-7.83,-7.99,0,*5F
1489658745.86,35635,9.75,73194.8,-6.63,-7.73,-7.83,0,*5A
1489658747.07,35636,9.75,73180.0,-6.61,-8.25,-8.37,0,*57
1489658748.26,35637,9.75,73162.8,-6.61,-8.21,-8.37,0,*52
1489658749.48,35638,9.75,73202.0,-6.63,-8.55,-8.67,0,*59
1489658750.69,35639,9.75,73198.8,-6.63,-8.33,-8.33,0,*59
1489658751.9,35640,9.75,73190.8,-6.59,-8.17,-8.21,0,*5B
1489658753.15,35641,9.75,73182.0,-6.61,-7.61,-7.73,0,*57
1489658754.37,35642,9.75,73182.0,-6.59,-7.53,-7.57,0,*58
1489658755.6,35643,9.75,73166.8,-6.59,-7.95,-8.17,0,*58
1489658756.85,35644,9.75,73168.0,-6.57,-8.45,-8.51,0,*51
1489658758.07,35645,9.75,73168.3,-6.57,-8.21,-8.21,0,*55
1489658759.3,35646,9.75,73150.0,-6.57,-8.45,-8.45,0,*56
1489658760.54,35647,9.75,73170.5,-6.57,-8.75,-8.85,0,*58
1489658761.76,35648,9.75,73216.8,-6.57,-8.63,-8.63,0,*58
1489658763.0,35649,9.75,73166.0,-6.57,-10.97,-11.23,0,*57
1489658764.26,35650,9.75,73170.3,-6.61,-11.29,-11.37,0,*5B
1489658765.5,35651,9.75,73144.0,-6.63,-10.27,-10.31,0,*50
1489658766.75,35652,9.75,73138.8,-6.67,-8.71,-8.81,0,*5F
1489658767.98,35653,9.75,73156.8,-6.65,-8.97,-9.11,0,*5C
1489658769.18,35654,9.75,73146.5,-6.65,-8.67,-8.85,0,*58
1489658770.38,35655,9.75,73156.5,-6.65,-8.41,-8.45,0,*51
1489658771.58,35656,9.75,73166.5,-6.65,-8.55,-8.71,0,*50
1489658772.78,35657,9.75,73174.8,-6.65,-8.97,-8.97,0,*57
1489658774.0,35658,9.75,73182.3,-6.63,-8.55,-8.55,0,*5E
1489658775.2,35659,9.75,73168.8,-6.61,-8.93,-9.01,0,*57
1489658776.45,35660,9.75,73174.8,-6.63,-9.05,-9.15,0,*54
1489658777.67,35661,9.75,73160.0,-6.63,-9.19,-9.23,0,*5D
1489658778.89,35662,9.75,73168.8,-6.63,-8.75,-8.67,0,*54
1489658780.14,35663,9.75,73190.8,-6.63,-8.55,-8.51,0,*52
1489658781.37,35664,9.75,73184.3,-6.63,-8.93,-8.93,0,*51
1489658782.59,35665,9.75,73178.5,-6.63,-9.19,-9.19,0,*50
1489658783.83,35666,9.75,73170.5,-6.65,-9.61,-9.49,0,*5F
1489658785.06,35667,9.75,73172.8,-6.65,-9.23,-9.41,0,*50
1489658786.29,35668,9.75,73164.0,-6.67,-9.75,-9.75,0,*59
1489658787.57,35669,9.75,73176.5,-6.67,-9.37,-9.41,0,*59
1489658788.82,35670,9.75,73178.3,-6.67,-8.71,-8.81,0,*5F
1489658790.03,35671,9.75,73172.5,-6.67,-8.67,-8.67,0,*51
1489658791.25,35672,9.75,73180.3,-6.67,-8.67,-8.67,0,*52
1489658792.47,35673,9.75,73198.0,-6.67,-8.67,-8.55,0,*52
1489658793.69,35674,9.75,73206.5,-6.67,-8.71,-8.67,0,*53
1489658794.97,35675,9.75,73206.0,-6.67,-9.37,-9.41,0,*54
1489658796.21,35676,9.75,73192.5,-6.69,-10.63,-10.89,0,*5C
1489658797.43,35677,9.75,73190.0,-6.73,-10.89,-10.93,0,*59
1489658798.67,35678,9.75,73186.8,-6.73,-10.89,-11.07,0,*5A
1489658799.9,35679,9.75,73174.8,-6.77,-10.79,-10.85,0,*5B
1489658801.12,35680,9.75,73186.3,-6.79,-9.93,-9.79,0,*54
1489658802.4,35681,9.75,73178.3,-6.79,-9.11,-9.11,0,*51
1489658803.65,35682,9.75,73196.3,-6.79,-8.55,-8.51,0,*56
1489658804.88,35683,9.75,73200.0,-6.79,-9.05,-8.97,0,*59
1489658806.09,35684,9.75,73208.3,-6.81,-10.85,-11.01,0,*5E
1489658807.34,35685,9.75,73194.3,-6.81,-11.41,-11.55,0,*57
1489658808.59,35686,9.75,73192.3,-6.85,-11.77,-11.85,0,*58
1489658809.83,35687,9.75,73186.0,-6.91,-10.89,-10.97,0,*5E
1489658811.13,35688,9.75,73166.8,-6.91,-10.71,-10.63,0,*5D
1489658812.36,35689,9.75,73152.3,-6.91,-10.89,-10.85,0,*53
1489658813.57,35690,9.75,73162.8,-6.95,-10.35,-10.31,0,*57
1489658814.79,35691,9.75,73178.0,-6.95,-10.19,-10.09,0,*53
1489658815.99,35692,9.75,73172.5,-6.99,-10.53,-10.53,0,*5D
1489658817.23,35693,9.75,73178.0,-6.99,-10.41,-10.27,0,*5C
1489658818.42,35694,9.75,73184.0,-6.99,-10.09,-9.97,0,*64
1489658819.66,35695,9.75,73192.8,-7.01,-10.27,-10.15,0,*5B
1489658820.9,35696,9.75,73178.0,-7.01,-10.27,-10.09,0,*55
1489658822.13,35697,9.75,73172.3,-7.01,-8.81,-8.71,0,*57
1489658823.35,35698,9.75,73198.3,-7.01,-8.63,-8.59,0,*5E
1489658824.6,35699,9.75,73206.5,-7.01,-8.51,-8.33,0,*52
1489658825.82,35700,9.75,73216.8,-6.99,-8.51,-8.37,0,*57
1489658827.02,35701,9.69,73220.8,-6.99,-9.31,-9.27,0,*51
1489658828.21,35702,9.75,73238.5,-6.99,-9.89,-9.71,0,*52
1489658829.42,35703,9.75,73230.5,-6.99,-10.09,-10.01,0,*5C
1489658830.68,35704,9.75,73220.5,-7.01,-10.53,-10.41,0,*50
1489658831.91,35705,9.75,73232.3,-7.01,-10.27,-10.27,0,*52
1489658833.13,35706,9.75,73214.5,-7.03,-10.15,-10.01,0,*56
1489658834.34,35707,9.75,73206.3,-7.03,-10.53,-10.45,0,*55
1489658835.58,35708,9.75,73196.0,-7.05,-10.31,-10.15,0,*5D
1489658836.79,35709,9.75,73186.5,-7.07,-9.83,-9.71,0,*55
1489658838.02,35710,9.75,73180.5,-7.07,-9.67,-9.61,0,*56
1489658839.24,35711,9.75,73178.0,-7.07,-9.71,-9.61,0,*50
1489658840.48,35712,9.75,73182.3,-7.09,-9.23,-9.15,0,*59
1489658841.69,35713,9.75,73172.8,-7.07,-8.85,-8.71,0,*58
1489658842.89,35714,9.75,73210.0,-7.07,-8.97,-8.85,0,*57
1489658844.1,35715,9.75,73204.0,-7.07,-9.97,-9.83,0,*50
1489658845.33,35716,9.75,73186.3,-7.09,-10.23,-10.09,0,*50
1489658846.53,35717,9.75,73206.5,-7.07,-9.23,-8.97,0,*59
1489658847.73,35718,9.69,73200.0,-7.07,-9.27,-9.27,0,*58
1489658848.93,35719,9.75,73182.0,-7.07,-9.79,-9.67,0,*56
1489658850.15,35720,9.75,73182.3,-7.09,-10.05,-9.93,0,*6A
1489658851.37,35721,9.75,73182.3,-7.09,-9.93,-9.93,0,*5C
1489658852.61,35722,9.75,73162.0,-7.09,-10.31,-10.19,0,*55
1489658853.83,35723,9.75,73172.5,-7.13,-9.71,-9.67,0,*52
1489658855.07,35724,9.75,73144.3,-7.13,-9.67,-9.41,0,*56
1489658856.29,35725,9.75,73174.3,-7.11,-9.31,-9.15,0,*57
1489658857.55,35726,9.75,73148.3,-7.13,-9.57,-9.45,0,*53
1489658858.79,35727,9.75,73152.3,-7.13,-9.27,-9.15,0,*50
1489658860.01,35728,9.75,73156.8,-7.11,-8.75,-8.51,0,*5A
1489658861.2,35729,9.75,73166.0,-7.11,-8.75,-8.63,0,*5A
1489658862.39,35730,9.69,73172.0,-7.11,-8.45,-8.33,0,*54
1489658863.59,35731,9.69,73168.3,-7.11,-8.37,-8.21,0,*53
1489658864.78,35732,9.75,73188.8,-7.11,-8.75,-8.63,0,*50
1489658865.97,35733,9.69,73162.8,-7.07,-8.45,-8.33,0,*50
1489658867.22,35734,9.75,73152.8,-7.07,-7.95,-7.91,0,*52
1489658868.46,35735,9.75,73146.0,-7.07,-8.03,-7.91,0,*53
1489658869.73,35736,9.75,73150.5,-7.05,-8.03,-7.91,0,*52
1489658870.95,35737,9.75,73154.8,-7.03,-8.55,-8.51,0,*55
1489658872.15,35738,9.75,73134.5,-7.03,-8.63,-8.41,0,*5E
1489658873.37,35739,9.75,73154.5,-7.05,-8.37,-8.29,0,*56
1489658874.59,35740,9.75,73160.3,-7.03,-8.25,-8.03,0,*55
1489658875.86,35741,9.75,73124.0,-7.01,-7.77,-7.57,0,*50
1489658877.08,35742,9.75,73130.5,-6.99,-7.99,-7.87,0,*5E
1489658878.31,35743,9.75,73152.3,-6.99,-8.11,-7.87,0,*50
1489658879.53,35744,9.75,73138.8,-6.99,-8.25,-8.11,0,*50
1489658880.72,35745,9.75,73152.5,-6.95,-8.33,-8.17,0,*5C
1489658882.0,35746,9.75,73158.3,-6.93,-8.07,-7.91,0,*5F
1489658883.22,35747,9.69,73158.0,-6.95,-8.29,-8.03,0,*50
1489658884.44,35748,9.75,73156.0,-6.95,-8.21,-8.07,0,*53
1489658885.67,35749,9.75,73166.3,-6.93,-8.41,-8.21,0,*56
1489658886.94,35750,9.75,73158.0,-6.91,-8.03,-7.91,0,*5E
1489658888.22,35751,9.75,73172.5,-6.87,-7.99,-7.73,0,*58
1489658889.5,35752,9.75,73174.5,-6.87,-7.73,-7.73,0,*5F
1489658890.73,35753,9.75,73172.0,-6.85,-7.87,-7.73,0,*57
1489658891.95,35754,9.75,73182.0,-6.85,-7.83,-7.73,0,*54
1489658893.21,35755,9.75,73186.3,-6.85,-7.73,-7.73,0,*5A
1489658894.44,35756,9.75,73188.8,-6.85,-8.17,-8.07,0,*58
1489658895.67,35757,9.75,73194.5,-6.81,-9.11,-8.97,0,*53
1489658896.85,35758,9.69,73164.0,-6.85,-9.89,-9.89,0,*57
1489658898.05,35759,9.75,73172.0,-6.85,-9.27,-9.05,0,*56
1489658899.31,35760,9.75,73128.8,-6.87,-8.21,-8.07,0,*5A
1489658900.51,35761,9.75,73170.3,-6.81,-8.41,-8.17,0,*5A
1489658901.74,35762,9.75,73110.0,-6.85,-8.51,-8.45,0,*5B
1489658902.96,35763,9.69,73112.0,-6.85,-8.51,-8.37,0,*5F
1489658904.2,35764,9.75,73160.8,-6.81,-9.11,-8.89,0,*5C
1489658905.4,35765,9.75,73152.5,-6.85,-8.59,-8.45,0,*54
1489658906.6,35766,9.75,73174.3,-6.81,-8.71,-8.45,0,*59
1489658907.79,35767,9.75,73176.8,-6.85,-8.33,-8.21,0,*58
1489658908.99,35768,9.75,73174.5,-6.85,-8.59,-8.45,0,*59
1489658910.2,35769,9.75,73182.8,-6.81,-8.55,-8.45,0,*50
1489658911.4,35770,9.75,73202.5,-6.81,-8.45,-8.21,0,*5B
1489658912.62,35771,9.69,73200.5,-6.81,-8.29,-7.95,0,*50
1489658913.84,35772,9.75,73206.5,-6.81,-8.25,-7.91,0,*5B
1489658915.04,35773,9.75,73206.0,-6.81,-8.41,-8.25,0,*58
1489658916.3,35774,9.75,73202.3,-6.79,-8.51,-8.37,0,*5A